SIRIUS-2

Last updated on Tue Oct 25 2016 17:18:58 GMT+0000 (Coordinated Universal Time)

1 26483U 00051A 16299.23709255 .00000071 00000-0 00000+0 0 9996 2 26483 64.6149 110.6663 0133479 259.5134 285.5130 1.64982308 59711
UTC large
Height (km)
Speed (km/s)
/
Latitude / Longitude
Inclination (degrees)
Orbital Period (minutes)
Azimuth
Elevation
Range (km)
Doppler Factor

Next 0 passes for location: London (51.5072 / 0.1276)

Sorry there are no passes over London.
SIRIUS-2